Flag for Germany Weather past 2 weeks in Hannover, Lower Saxony, Germany

Now
45 °F

Clear.


Feels Like: 38 °F
Forecast: 37 / 42 °F
Wind: 14 mph from South

Location: Hannover

Current Time: Feb 27, 2015 at 12:38:28 AM

Latest Report: Feb 27, 2015 at 12:20 AM


Visibility: 10 mi

Pressure: 29.83 "Hg

Humidity: 57%

Dew point: 30 °F

Location of HannoverLocation

Historic Weather in Hannover — Graph

°F

Hannover temperature yesterday

Maximum temperature yesterday: 48 °F (at 2:20 PM)
Minimum temperature yesterday: 37 °F (at 2:20 AM)
Average temperature yesterday: 42 °F

Past Weeks' High & Low Weather Summary

 TemperatureHumidityPressure
High52 °F (Feb 14, 3:50 PM)100% (Feb 11, 11:20 PM)30.72 "Hg (Feb 11, 11:20 PM)
Low27 °F (Feb 12, 3:20 AM)50% (Feb 25, 3:20 PM)29.30 "Hg (Feb 21, 9:20 AM)
Average38 °F82%29.99 "Hg
* Reported Feb 11 11:20 PM — Feb 26 11:20 PM, Hannover, Weather by CustomWeather, © 2015

Note: Actual official high and low records may vary slightly from our data, if they occured in-between our weather recording intervals... More about our weather records

Advertising

Hannover weather history for previous 24 hours

 ConditionsComfort  
Time TempWeatherWind HumidityBarometerVisibility
11:20 PM
Thu, Feb 26
43 °FClear.8 mph66%29.86 "Hg10 mi
10:50 PM43 °FClear.8 mph66%29.86 "Hg10 mi
10:20 PM43 °FClear.9 mph66%29.86 "Hg10 mi
9:50 PM43 °FClear.8 mph66%29.89 "Hg10 mi
9:20 PM43 °FClear.14 mph66%29.89 "Hg10 mi
8:50 PM43 °FClear.14 mph66%29.89 "Hg10 mi
8:20 PM43 °FClear.12 mph61%29.92 "Hg10 mi
7:50 PM43 °FClear.14 mph61%29.92 "Hg10 mi
7:20 PM43 °FPassing clouds.14 mph66%29.92 "HgN/A
6:50 PM45 °FPassing clouds.10 mph61%29.95 "HgN/A
6:20 PM45 °FPassing clouds.10 mph61%29.95 "HgN/A
5:50 PM45 °FPassing clouds.12 mph61%29.95 "HgN/A
5:20 PM46 °FPassing clouds.13 mph57%29.95 "HgN/A
4:50 PM46 °FPassing clouds.18 mph57%29.98 "HgN/A
4:20 PM48 °FPassing clouds.17 mph54%29.98 "HgN/A
3:50 PM48 °FScattered clouds.18 mph54%29.98 "HgN/A
3:20 PM48 °FScattered clouds.17 mph54%30.01 "HgN/A
2:50 PM48 °FPartly sunny.17 mph58%30.01 "HgN/A
2:20 PM48 °FPartly sunny.15 mph62%30.01 "HgN/A
1:50 PM46 °FPartly sunny.14 mph62%30.04 "HgN/A
1:20 PM46 °FPartly sunny.13 mph66%30.04 "HgN/A
12:50 PM46 °FPartly sunny.12 mph66%30.07 "HgN/A
12:20 PM45 °FPartly sunny.14 mph66%30.07 "HgN/A
11:50 AM46 °FPartly sunny.15 mph66%30.09 "HgN/A
11:20 AM43 °FPartly sunny.10 mph71%30.09 "HgN/A
10:50 AM43 °FPartly sunny.8 mph71%30.09 "HgN/A
10:20 AM41 °FPartly sunny.10 mph76%30.09 "HgN/A
9:50 AM41 °FPartly sunny.12 mph76%30.12 "HgN/A
9:20 AM39 °FPartly sunny.13 mph81%30.12 "HgN/A
8:50 AM39 °FPartly sunny.13 mph81%30.12 "HgN/A
8:20 AM39 °FPartly sunny.13 mph75%30.12 "HgN/A
7:50 AM39 °FPartly sunny.10 mph75%30.12 "HgN/A
6:50 AM39 °FPassing clouds.8 mph75%30.12 "HgN/A
6:20 AM39 °FPassing clouds.7 mph75%30.12 "HgN/A
5:50 AM37 °FPartly cloudy.8 mph81%30.12 "HgN/A
5:20 AM39 °FPassing clouds.6 mph75%30.12 "HgN/A
4:50 AM39 °FPassing clouds.10 mph75%30.12 "HgN/A
4:20 AM37 °FPassing clouds.5 mph81%30.12 "HgN/A
3:50 AM39 °FPassing clouds.5 mph75%30.12 "HgN/A
3:20 AM39 °FPartly cloudy.3 mph75%30.12 "HgN/A
2:50 AM37 °FPassing clouds.6 mph81%30.12 "HgN/A
2:20 AM37 °FPassing clouds.6 mph81%30.12 "HgN/A
1:50 AM39 °FClear.5 mph75%30.12 "Hg10 mi
1:20 AM39 °FClear.8 mph75%30.12 "Hg10 mi
12:50 AM41 °FClear.6 mph70%30.12 "Hg10 mi
12:20 AM41 °FClear.5 mph70%30.12 "Hg10 mi
Weather by CustomWeather, © 2015

See weather overviewHow to use our weather pages